Port Orchard, Washington, United States (98366)
Lat: 47.54N, Lon: 122.64W
Wx Zone: WAZ508
Local Info
Past Weather Observations for Sunday, August 24, 2014

NOTE: This archive is for the closest National Weather Service station to Port Orchard. Information may differ from the station used for current weather conditions.

Click here for Long-term Archive

Time Weather Temperature Dewpoint Humidity Pressure Winds Precip Visibility
23:55
Clear
54°F / 12°C 52°F / 11°C 94% 30.04 in
(1017 mb)
Calm - 10SM
23:35
Clear
54°F / 12°C 52°F / 11°C 94% 30.04 in
(1017 mb)
Calm - 10SM
23:15
Clear
54°F / 12°C 52°F / 11°C 94% 30.04 in
(1017 mb)
Calm - 10SM
22:55
Clear
55°F / 13°C 52°F / 11°C 88% 30.04 in
(1017 mb)
Calm - 10SM
22:35
Clear
55°F / 13°C 54°F / 12°C 94% 30.04 in
(1017 mb)
Calm - 10SM
22:15
Clear
55°F / 13°C 54°F / 12°C 94% 30.04 in
(1017 mb)
Calm - 10SM
21:55
Clear
59°F / 15°C 54°F / 12°C 82% 30.04 in
(1017 mb)
Calm - 10SM
21:35
Clear
57°F / 14°C 54°F / 12°C 88% 30.04 in
(1017 mb)
Calm - 10SM
21:15
Clear
57°F / 14°C 54°F / 12°C 88% 30.01 in
(1016 mb)
Calm - 10SM
20:55
Clear
57°F / 14°C 54°F / 12°C 88% 30.01 in
(1016 mb)
NE 3.5 mph
(NE 6 kph)
- 10SM
20:35
Clear
59°F / 15°C 54°F / 12°C 82% 30.01 in
(1016 mb)
Calm - 10SM
20:15
Clear
59°F / 15°C 54°F / 12°C 82% 30.01 in
(1016 mb)
Calm - 10SM
19:55
Clear
59°F / 15°C 54°F / 12°C 82% 30.01 in
(1016 mb)
Calm - 9SM
19:35
Clear
61°F / 16°C 54°F / 12°C 77% 30.01 in
(1016 mb)
Calm - 10SM
19:15
Clear
64°F / 18°C 55°F / 13°C 73% 30.01 in
(1016 mb)
Calm - 7SM
18:55
Clear
66°F / 19°C 55°F / 13°C 68% 29.98 in
(1015 mb)
Calm - 10SM
18:35
Clear
70°F / 21°C 55°F / 13°C 60% 30.01 in
(1016 mb)
Calm - 10SM
18:15
Clear
72°F / 22°C 55°F / 13°C 57% 29.98 in
(1015 mb)
NE 4.6 mph
(NE 7 kph)
- 10SM
17:55
Clear
73°F / 23°C 57°F / 14°C 57% 29.98 in
(1015 mb)
NNE 8.1 mph
(NNE 13 kph)
- 10SM
17:35
Clear
73°F / 23°C 57°F / 14°C 57% 29.98 in
(1015 mb)
NE 8.1 mph
(NE 13 kph)
- 10SM
17:15
Clear
75°F / 24°C 57°F / 14°C 54% 29.98 in
(1015 mb)
NE 6.9 mph
(NE 11 kph)
- 10SM
16:55
Clear
75°F / 24°C 57°F / 14°C 54% 29.98 in
(1015 mb)
NE 8.1 mph
(NE 13 kph)
- 10SM
16:35
Clear
75°F / 24°C 59°F / 15°C 57% 29.98 in
(1015 mb)
NE 8.1 mph
(NE 13 kph)
- 10SM
16:15
Clear
77°F / 25°C 59°F / 15°C 54% 29.95 in
(1014 mb)
NNE 6.9 mph
(NNE 11 kph)
- 10SM
15:55
Clear
77°F / 25°C 59°F / 15°C 54% 29.95 in
(1014 mb)
NNE 5.8 mph
(NNE 9 kph)
- 10SM
15:35
Clear
77°F / 25°C 59°F / 15°C 54% 29.95 in
(1014 mb)
NNE 5.8 mph
(NNE 9 kph)
- 10SM
15:15
Clear
79°F / 26°C 61°F / 16°C 54% 29.95 in
(1014 mb)
NNE 8.1 mph
(NNE 13 kph)
- 10SM
14:55
Clear
77°F / 25°C 61°F / 16°C 57% 29.98 in
(1015 mb)
E 5.8 mph
(E 9 kph)
- 9SM
14:35
Clear
79°F / 26°C 61°F / 16°C 54% 29.98 in
(1015 mb)
SE 3.5 mph
(SE 6 kph)
- 10SM
14:15
Clear
77°F / 25°C 61°F / 16°C 57% 29.98 in
(1015 mb)
NW 4.6 mph
(NW 7 kph)
- 10SM
13:55
Clear
77°F / 25°C 61°F / 16°C 57% 29.98 in
(1015 mb)
SW 4.6 mph
(SW 7 kph)
- 10SM
13:35
Clear
73°F / 23°C 59°F / 15°C 61% 29.98 in
(1015 mb)
S 3.5 mph
(S 6 kph)
- 10SM
13:15
Clear
75°F / 24°C 61°F / 16°C 61% 29.98 in
(1015 mb)
Calm - 10SM
12:55
Clear
73°F / 23°C 59°F / 15°C 61% 30.01 in
(1016 mb)
Calm - 10SM
12:35
Clear
72°F / 22°C 59°F / 15°C 65% 30.01 in
(1016 mb)
Calm - 10SM
12:15
Clear
72°F / 22°C 57°F / 14°C 61% 30.01 in
(1016 mb)
Calm - 10SM
11:55
Clear
68°F / 20°C 57°F / 14°C 69% 30.01 in
(1016 mb)
E 4.6 mph
(E 7 kph)
- 10SM
11:35
Clear
66°F / 19°C 57°F / 14°C 73% 30.01 in
(1016 mb)
Calm - 10SM
11:15
Clear
66°F / 19°C 57°F / 14°C 73% 30.04 in
(1017 mb)
SW 6.9 mph
(SW 11 kph)
- 10SM
10:55
Clear
64°F / 18°C 57°F / 14°C 78% 30.04 in
(1017 mb)
SE 3.5 mph
(SE 6 kph)
- 10SM
10:35
Partly Cloudy
61°F / 16°C 55°F / 13°C 83% 30.04 in
(1017 mb)
SSE 5.8 mph
(SSE 9 kph)
- 10SM
10:15
Overcast
61°F / 16°C 57°F / 14°C 88% 30.04 in
(1017 mb)
SE 5.8 mph
(SE 9 kph)
- 10SM
09:55
Overcast
59°F / 15°C 55°F / 13°C 88% 30.04 in
(1017 mb)
SW 3.5 mph
(SW 6 kph)
- 10SM
09:35
Overcast
59°F / 15°C 55°F / 13°C 88% 30.04 in
(1017 mb)
SW 4.6 mph
(SW 7 kph)
- 10SM
09:15
Overcast
57°F / 14°C 55°F / 13°C 94% 30.04 in
(1017 mb)
S 4.6 mph
(S 7 kph)
- 10SM
08:55
Overcast
57°F / 14°C 55°F / 13°C 94% 30.04 in
(1017 mb)
SW 3.5 mph
(SW 6 kph)
- 10SM
08:35
Overcast
55°F / 13°C 54°F / 12°C 94% 30.04 in
(1017 mb)
Calm - 7SM
08:15
Overcast
55°F / 13°C 55°F / 13°C 100% 30.04 in
(1017 mb)
Calm - 1 1/2SM
07:55
Overcast
54°F / 12°C 54°F / 12°C 100% 30.04 in
(1017 mb)
Calm - 1/2SM
07:35
Overcast
54°F / 12°C 54°F / 12°C 100% 30.04 in
(1017 mb)
Calm - M1/4SM
07:15
Overcast
54°F / 12°C 54°F / 12°C 100% 30.04 in
(1017 mb)
Calm - M1/4SM
06:55
Overcast
54°F / 12°C 54°F / 12°C 100% 30.04 in
(1017 mb)
S 3.5 mph
(S 6 kph)
- M1/4SM
06:35
Overcast
54°F / 12°C 54°F / 12°C 100% 30.04 in
(1017 mb)
Calm - M1/4SM
06:15
Overcast
54°F / 12°C 54°F / 12°C 100% 30.04 in
(1017 mb)
SW 3.5 mph
(SW 6 kph)
- M1/4SM
05:55
Overcast
54°F / 12°C 54°F / 12°C 100% 30.01 in
(1016 mb)
SW 3.5 mph
(SW 6 kph)
- M1/4SM
05:35
Overcast
54°F / 12°C 54°F / 12°C 100% 30.04 in
(1017 mb)
SSW 4.6 mph
(SSW 7 kph)
- 1/4SM
05:15
Overcast
54°F / 12°C 54°F / 12°C 100% 30.04 in
(1017 mb)
SW 3.5 mph
(SW 6 kph)
- 1/4SM
04:55
Overcast
54°F / 12°C 54°F / 12°C 100% 30.04 in
(1017 mb)
SW 4.6 mph
(SW 7 kph)
- 1/2SM
04:35
Overcast
54°F / 12°C 54°F / 12°C 100% 30.04 in
(1017 mb)
SSE 4.6 mph
(SSE 7 kph)
- 1/4SM
04:15
Overcast
54°F / 12°C 54°F / 12°C 100% 30.04 in
(1017 mb)
S 4.6 mph
(S 7 kph)
- 1/2SM
03:55
Overcast
54°F / 12°C 54°F / 12°C 100% 30.04 in
(1017 mb)
SSE 4.6 mph
(SSE 7 kph)
- 1/4SM
03:35
Mostly Cloudy
54°F / 12°C 54°F / 12°C 100% 30.04 in
(1017 mb)
S 3.5 mph
(S 6 kph)
- 7SM
03:15
Clear
55°F / 13°C 55°F / 13°C 100% 30.04 in
(1017 mb)
Calm - 9SM
02:55
Clear
52°F / 11°C 52°F / 11°C 100% 30.04 in
(1017 mb)
Calm - 10SM
02:35
Clear
54°F / 12°C 52°F / 11°C 94% 30.04 in
(1017 mb)
Calm - 10SM
02:15
Clear
52°F / 11°C 52°F / 11°C 100% 30.04 in
(1017 mb)
Calm - 10SM
01:55
Clear
52°F / 11°C 50°F / 10°C 94% 30.04 in
(1017 mb)
Calm - 10SM
01:35
Clear
52°F / 11°C 50°F / 10°C 94% 30.04 in
(1017 mb)
Calm - 10SM
01:15
Clear
54°F / 12°C 52°F / 11°C 94% 30.04 in
(1017 mb)
Calm - 10SM
00:55
Clear
54°F / 12°C 52°F / 11°C 94% 30.04 in
(1017 mb)
Calm - 10SM
00:35
Clear
55°F / 13°C 54°F / 12°C 94% 30.04 in
(1017 mb)
Calm - 10SM
00:15
Clear
54°F / 12°C 52°F / 11°C 94% 30.04 in
(1017 mb)
Calm - 10SM
Time Weather Temperature Dewpoint Humidity Pressure Winds Precip Visibility


Weather for websites

WeatherForYou.com, LLC is not responsible for any damages or problems caused by this service. Current weather conditions are obtained from the closest station including government and personal stations which may have varying degrees of accuracy. Weather forecasts are derived from the NOAA NDFD. Like all things, this site belongs to Jesus Christ... He just trusts me to maintain it. If you have any questions or comments email webmaster@weatherforyou.com

Copyright © 2014, WeatherForYou.com LLC. All rights reserved.